Date String (YYYY-MM-DD hh:mm:ss) UTC,Instrument flags,Ambient pressure (hPa),Sample flow (lpm),Bypass flow (lpm),Sample temperature (°C),Ambient temperature (°C),ASC tube jacket temperature (°C),LED temperature (°C),Box temperature (°C),Sample RH (%),Span deviation,Mass concentration (μg/m³),Mass concentration (μg/m³),Mass concentration (μg/m³)
DateTimeUTC,F1_M11,P_M11,Q1_M11,Q2_M11,T1_M11,T2_M11,T3_M11,T4_M11,T5_M11,U1_M11,ZSPAN_M11,X0_M11,X2_M11,X1_M11
2023-01-13 19:00:00,,0830.0,5.01,0.00,24.6,23.5,00.0,33.4,26.4,10.1,0000.0,0011.39,0006.14,0005.47
2023-01-13 19:01:00,,0829.9,5.00,0.00,24.6,23.5,00.0,33.4,26.5,10.1,0000.0,0012.35,0006.21,0005.55
2023-01-13 19:02:00,,0829.9,5.00,0.00,24.7,23.5,00.0,33.4,26.5,10.5,0000.0,0012.00,0006.19,0005.55
2023-01-13 19:03:00,,0829.9,4.99,0.00,24.7,23.5,00.0,33.4,26.5,10.4,0000.0,0011.48,0006.15,0005.53
2023-01-13 19:04:00,,0829.9,4.99,0.00,24.7,23.5,00.0,33.4,26.5,10.7,0000.0,0011.47,0006.13,0005.53
2023-01-13 19:05:00,,0829.8,4.99,0.00,24.7,23.6,00.0,33.4,26.6,10.5,0000.0,0011.55,0006.10,0005.55
2023-01-13 19:06:00,,0829.8,5.00,0.00,24.7,23.6,00.0,33.4,26.6,10.6,0000.0,0011.32,0006.08,0005.55
2023-01-13 19:07:00,,0829.8,5.00,0.00,24.7,23.6,00.0,33.4,26.6,10.0,0000.0,0010.59,0006.01,0005.52
2023-01-13 19:08:00,,0829.6,4.99,0.00,24.7,23.6,00.0,33.5,26.6,10.2,0000.0,0010.42,0005.89,0005.43
2023-01-13 19:09:00,,0829.7,4.99,0.00,24.7,23.6,00.0,33.5,26.6,10.0,0000.0,0010.76,0005.85,0005.39
2023-01-13 19:10:00,,0829.6,5.00,0.00,24.7,23.6,00.0,33.5,26.6,09.8,0000.0,0010.92,0005.82,0005.34
2023-01-13 19:11:00,,0829.6,5.00,0.00,24.7,23.6,00.0,33.5,26.7,09.8,0000.0,0011.70,0005.81,0005.33
2023-01-13 19:12:00,,0829.6,5.01,0.00,24.7,23.5,00.0,33.5,26.6,09.5,0000.0,0010.92,0005.80,0005.31
2023-01-13 19:13:00,,0829.6,5.01,0.00,24.7,23.5,00.0,33.5,26.6,09.2,0000.0,0010.56,0005.68,0005.20
2023-01-13 19:14:00,,0829.6,4.98,0.00,24.7,23.5,00.0,33.5,26.6,09.3,0000.0,0010.40,0005.53,0005.05
2023-01-13 19:15:00,,0829.6,4.99,0.00,24.7,23.5,00.0,33.5,26.6,09.4,0000.0,0010.12,0005.36,0004.90
2023-01-13 19:16:00,,0829.5,5.02,0.00,24.7,23.6,00.0,33.5,26.6,09.4,0000.0,0009.71,0005.16,0004.70
2023-01-13 19:17:00,,0829.5,5.01,0.00,24.7,23.6,00.0,33.5,26.6,09.4,0000.0,0009.50,0005.01,0004.53
2023-01-13 19:18:00,,0829.6,5.00,0.00,24.8,23.6,00.0,33.5,26.6,09.8,0000.0,0009.21,0004.89,0004.44
2023-01-13 19:19:00,,0829.6,5.00,0.00,24.8,23.6,00.0,33.5,26.6,09.9,0000.0,0009.10,0004.84,0004.39
2023-01-13 19:20:00,,0829.6,5.00,0.00,24.8,23.6,00.0,33.5,26.6,09.8,0000.0,0008.78,0004.74,0004.32
2023-01-13 19:21:00,,0829.6,5.00,0.00,24.8,23.6,00.0,33.6,26.6,10.0,0000.0,0009.31,0004.69,0004.30
2023-01-13 19:22:00,,0829.5,5.00,0.00,24.8,23.6,00.0,33.6,26.6,10.0,0000.0,0008.63,0004.65,0004.26
2023-01-13 19:23:00,,0829.6,5.01,0.00,24.8,23.6,00.0,33.6,26.6,10.3,0000.0,0008.85,0004.63,0004.25
2023-01-13 19:24:00,,0829.5,4.99,0.00,24.8,23.7,00.0,33.6,26.6,10.4,0000.0,0008.97,0004.66,0004.28
2023-01-13 19:25:00,,0829.5,5.00,0.00,24.8,23.7,00.0,33.6,26.6,10.3,0000.0,0009.06,0004.69,0004.31
2023-01-13 19:26:00,,0829.4,5.00,0.00,24.8,23.7,00.0,33.6,26.6,10.6,0000.0,0009.07,0004.69,0004.32
2023-01-13 19:27:00,,0829.2,5.01,0.00,24.9,23.7,00.0,33.6,26.7,10.5,0000.0,0009.28,0004.71,0004.34
2023-01-13 19:28:00,,0829.2,5.01,0.00,24.8,23.6,00.0,33.6,26.7,10.5,0000.0,0009.28,0004.68,0004.34
2023-01-13 19:29:00,,0829.2,5.00,0.00,24.8,23.5,00.0,33.6,26.7,10.6,0000.0,0009.27,0004.67,0004.32
2023-01-13 19:30:00,,0829.3,4.99,0.00,24.8,23.5,00.0,33.6,26.7,10.5,0000.0,0009.27,0004.69,0004.33
2023-01-13 19:31:00,,0829.2,5.00,0.00,24.8,23.5,00.0,33.6,26.7,10.2,0000.0,0009.19,0004.67,0004.29
2023-01-13 19:32:00,,0829.3,5.00,0.00,24.8,23.5,00.0,33.6,26.7,10.1,0000.0,0008.33,0004.62,0004.24
2023-01-13 19:33:00,,0829.2,5.00,0.00,24.8,23.6,00.0,33.6,26.7,10.1,0000.0,0007.99,0004.59,0004.22
2023-01-13 19:34:00,,0829.2,5.00,0.00,24.8,23.6,00.0,33.6,26.7,10.2,0000.0,0007.87,0004.58,0004.21
2023-01-13 19:35:00,,0829.2,5.00,0.00,24.8,23.6,00.0,33.6,26.7,10.5,0000.0,0007.70,0004.59,0004.21
2023-01-13 19:36:00,,0829.2,5.00,0.00,24.8,23.7,00.0,33.6,26.7,10.4,0000.0,0007.75,0004.64,0004.24
2023-01-13 19:37:00,,0829.3,5.00,0.00,24.9,23.7,00.0,33.6,26.7,10.4,0000.0,0007.79,0004.68,0004.28
2023-01-13 19:38:00,,0829.3,4.99,0.00,24.9,23.7,00.0,33.6,26.7,10.4,0000.0,0007.66,0004.72,0004.33
2023-01-13 19:39:00,,0829.2,5.01,0.00,24.9,23.7,00.0,33.7,26.7,10.5,0000.0,0007.62,0004.79,0004.39
2023-01-13 19:40:00,,0829.2,5.00,0.00,24.9,23.8,00.0,33.7,26.7,10.3,0000.0,0008.22,0004.86,0004.47
2023-01-13 19:41:00,,0829.2,5.01,0.00,24.9,23.8,00.0,33.7,26.7,10.4,0000.0,0008.30,0004.88,0004.52
2023-01-13 19:42:00,,0829.2,5.01,0.00,24.9,23.8,00.0,33.7,26.8,10.4,0000.0,0008.45,0004.97,0004.62
2023-01-13 19:43:00,,0829.0,5.00,0.00,25.0,23.9,00.0,33.7,26.9,10.5,0000.0,0008.63,0005.13,0004.77
2023-01-13 19:44:00,,0829.0,5.00,0.00,25.0,23.8,00.0,33.7,26.9,10.6,0000.0,0008.95,0005.26,0004.88
2023-01-13 19:45:00,,0829.1,5.01,0.00,25.0,23.8,00.0,33.7,26.9,10.5,0000.0,0009.16,0005.30,0004.92
2023-01-13 19:46:00,,0829.1,5.00,0.00,25.0,23.8,00.0,33.7,26.9,10.3,0000.0,0009.58,0005.35,0004.97
2023-01-13 19:47:00,,0829.1,5.00,0.00,25.0,23.8,00.0,33.7,26.8,10.4,0000.0,0009.92,0005.39,0005.01
2023-01-13 19:48:00,,0829.0,5.00,0.00,25.0,23.9,00.0,33.7,26.8,10.7,0000.0,0010.01,0005.42,0005.03
2023-01-13 19:49:00,,0829.0,5.00,0.00,25.0,23.9,00.0,33.8,26.9,10.6,0000.0,0010.08,0005.47,0005.07
2023-01-13 19:50:00,,0828.9,4.99,0.00,25.0,23.9,00.0,33.8,26.9,10.7,0000.0,0010.07,0005.51,0005.11
2023-01-13 19:51:00,,0828.9,5.00,0.00,25.0,23.9,00.0,33.8,26.9,10.7,0000.0,0009.63,0005.54,0005.14
2023-01-13 19:52:00,,0828.8,5.00,0.00,25.0,23.9,00.0,33.8,26.9,10.6,0000.0,0009.71,0005.61,0005.18
2023-01-13 19:53:00,,0828.9,5.00,0.00,25.0,23.8,00.0,33.8,26.9,10.6,0000.0,0009.68,0005.62,0005.18
2023-01-13 19:54:00,,0829.3,5.00,0.00,25.0,23.8,00.0,33.8,26.9,10.7,0000.0,0009.65,0005.62,0005.17
2023-01-13 19:55:00,,0829.1,5.02,0.00,25.0,23.7,00.0,33.8,26.9,10.9,0000.0,0009.83,0005.74,0005.24
2023-01-13 19:56:00,,0828.7,5.00,0.00,25.0,23.7,00.0,33.8,26.9,11.3,0000.0,0010.65,0005.94,0005.41
2023-01-13 19:57:00,,0828.7,5.00,0.00,25.0,23.8,00.0,33.8,26.9,10.7,0000.0,0010.65,0006.01,0005.47
2023-01-13 19:58:00,,0828.7,5.00,0.00,25.0,23.8,00.0,33.8,26.9,10.5,0000.0,0010.29,0005.95,0005.42
2023-01-13 19:59:00,,0828.7,5.01,0.00,25.0,23.8,00.0,33.8,26.9,10.7,0000.0,0010.08,0005.90,0005.38
